Wind_Speed
25 24 23 21 21 21 21 24 26 27 28 27 25 24 22 21 20 19 19 20 20 21 20 18 17 17 16 16 17 18 19 20 22 23 24 25 25 26 25 25 24 23
23 22 21 20 20 20 22 25 26 26 25 25 24 22 21 20 19 19 19 19 19 19 18 16 15 15 14 15 15 16 18 19 21 22 24 25 25 25 25 24 23 22
20 20 21 21 21 22 22 22 22 22 23 23 23 23 21 20 19 19 19 18 18 17 16 14 13 13 13 13 14 16 17 18 19 21 22 23 24 24 24 23 22 21
19 19 20 21 21 21 20 18 18 19 20 21 21 21 20 18 18 18 19 18 18 17 15 13 12 11 11 11 13 15 17 18 19 20 21 22 22 22 22 22 21 20
18 16 17 17 17 16 16 16 16 16 16 18 19 19 18 17 17 19 20 20 20 18 15 12 11 10 10 11 12 14 16 17 19 20 20 21 21 20 20 20 19 18
18 16 15 14 13 13 13 14 15 14 15 16 17 17 18 18 17 18 20 22 22 18 15 12 11 11 11 12 13 14 15 17 18 19 19 20 19 19 19 18 18 18
17 16 14 13 12 12 12 13 13 13 15 16 16 16 17 18 17 16 17 20 21 18 15 13 13 13 13 13 14 15 16 17 18 19 19 19 19 19 19 18 18 18
18 15 14 13 13 12 12 12 13 13 14 15 15 15 16 17 16 15 14 15 17 17 16 15 15 15 15 15 15 16 17 18 19 20 20 20 20 20 19 19 19 18
19 16 14 14 14 14 13 13 13 13 14 15 15 14 15 15 15 14 14 14 16 17 17 17 18 18 18 16 15 16 17 19 20 21 21 21 21 21 21 21 20 19
19 17 16 15 15 15 15 14 14 14 14 15 15 15 14 13 13 13 14 16 17 18 19 20 21 22 22 20 18 18 19 20 21 22 22 23 23 23 23 23 22 21
19 19 18 17 17 17 17 16 15 15 15 16 16 16 15 14 13 13 14 15 17 19 21 22 23 24 25 24 23 22 22 22 23 23 24 24 24 24 24 24 24 23
20 20 20 19 19 19 19 18 17 16 16 17 17 18 17 15 14 13 14 15 17 18 20 21 23 24 25 26 26 25 25 25 24 25 25 25 26 26 26 26 26 25
19 19 20 20 21 21 21 22 21 20 19 18 18 19 18 17 17 17 18 19 20 20 20 21 22 23 25 26 27 28 28 28 27 26 26 27 27 27 27 28 28 27
20 19 19 19 21 22 23 23 24 23 22 20 20 20 21 21 22 23 24 25 25 24 23 23 23 24 24 26 27 28 30 30 29 28 29 29 29 29 29 29 29 29
23 21 20 20 21 23 24 25 25 26 26 25 25 26 27 27 28 29 29 30 29 29 28 27 26 26 25 25 26 27 30 31 30 30 31 31 31 31 31 31 30 29
27 26 24 24 24 25 26 27 28 29 30 31 32 33 33 33 33 34 34 33 33 33 32 30 29 29 28 28 27 27 27 29 30 30 30 32 33 33 33 33 32 31
31 30 30 29 29 29 29 30 31 32 33 34 35 36 36 37 38 38 37 37 36 36 35 33 32 32 32 31 30 28 28 29 31 31 30 31 33 33 33 34 33 32
34 34 34 34 34 34 34 34 35 35 36 37 38 39 39 40 40 41 41 40 39 38 38 37 36 35 34 33 33 32 30 30 31 32 32 33 34 34 35 35 34 35
37 37 37 37 37 38 38 38 38 39 39 40 40 41 42 43 43 44 44 44 42 41 41 40 39 37 36 37 37 35 33 32 32 34 35 34 34 34 35 35 35 37
40 40 40 40 40 40 40 40 40 40 40 41 42 43 44 45 46 47 47 47 46 45 44 43 41 38 38 40 40 38 36 35 35 34 34 35 35 35 36 38 39 40
43 43 42 42 42 41 41 41 41 41 41 41 42 43 44 45 47 48 49 49 49 48 48 47 44 41 41 41 42 40 38 37 36 34 33 37 40 41 41 41 41 40
45 45 45 44 44 43 42 42 43 43 43 43 43 44 45 46 47 48 48 49 49 49 49 48 46 44 42 43 43 42 40 38 36 35 36 40 44 44 43 42 41 41
48 47 47 46 46 45 45 45 46 46 46 46 46 47 48 48 48 49 50 50 49 49 48 48 47 45 43 43 43 43 42 40 40 40 41 43 44 42 41 41 42 42
52 50 50 49 49 49 49 49 49 49 49 49 49 49 50 50 50 50 50 50 50 49 49 49 48 47 45 44 44 44 43 43 42 43 43 44 44 42 41 42 43 43
56 55 54 54 53 53 53 53 53 52 52 51 50 50 50 50 50 50 50 50 49 49 49 49 48 47 46 46 45 45 45 43 42 43 44 45 46 46 46 47 47 46
61 60 59 58 58 57 57 56 55 55 53 52 52 51 50 50 50 50 49 48 46 46 46 47 47 46 47 47 46 47 47 46 45 45 46 47 48 50 50 50 50 48
Wind_Direction
268 271 272 275 278 280 284 287 289 289 285 280 277 279 280 275 274 278 280 281 280 275 270 266 264 266 269 273 277 280 282 283 283 283 282 280 278 276 274 272 270 269
269 273 275 274 274 277 283 288 288 285 282 277 275 278 278 275 275 275 275 278 277 272 267 265 266 270 274 279 284 286 287 287 286 285 284 283 280 278 276 274 272 270
270 272 273 273 274 278 283 290 293 288 281 277 275 276 275 275 274 271 271 276 278 273 267 266 268 272 278 284 289 290 290 288 286 285 283 281 280 278 275 274 272 270
265 268 268 270 273 278 283 290 297 295 289 283 278 277 276 277 276 271 271 275 278 275 268 265 267 271 278 286 291 294 293 292 289 286 284 281 279 278 276 273 271 269
256 264 267 269 272 275 280 285 291 295 292 284 279 277 276 280 283 278 272 273 276 273 266 262 265 270 277 283 288 292 294 294 293 291 289 286 284 282 279 277 274 271
251 258 262 266 270 273 277 279 282 285 282 278 277 274 272 277 285 283 275 270 269 267 262 260 262 267 274 280 285 289 291 291 291 291 290 288 285 283 280 278 276 273
248 252 256 261 265 270 276 278 279 277 275 275 275 275 272 273 278 284 283 271 260 254 254 257 260 266 273 280 285 287 288 289 288 286 285 284 282 280 277 275 272 271
248 249 252 257 258 264 270 274 276 275 275 276 277 277 276 274 273 276 281 274 258 249 249 252 254 260 267 275 280 284 285 284 282 280 279 278 276 274 270 268 265 264
253 253 254 255 256 261 263 265 270 271 273 276 278 279 277 276 273 267 264 265 261 257 256 255 255 258 261 264 269 275 278 279 279 278 276 274 273 271 268 266 264 261
258 259 258 255 254 257 259 261 264 267 271 273 275 278 279 278 275 268 263 262 262 264 264 264 263 263 262 260 260 263 267 270 272 272 271 271 271 270 270 268 267 265
260 261 261 257 253 254 255 256 258 262 266 267 269 273 276 277 273 271 271 270 268 267 266 266 265 264 262 261 260 259 260 263 265 265 266 266 266 266 266 265 265 265
258 260 261 258 253 249 249 250 252 255 259 261 264 266 269 271 269 268 273 280 281 277 272 268 266 264 263 262 260 259 257 258 259 261 262 262 262 262 261 261 261 261
252 256 257 255 251 246 245 247 249 251 255 260 264 264 265 265 265 268 275 282 287 287 282 277 272 269 267 265 262 259 257 255 255 255 257 257 258 257 256 256 256 256
251 254 255 254 251 248 247 248 250 252 255 259 264 267 269 269 270 273 277 281 284 284 283 280 277 275 274 273 269 263 258 255 253 253 254 255 256 256 255 254 253 253
258 259 259 258 256 255 254 254 255 257 259 262 266 269 272 273 275 277 279 281 282 282 281 279 277 277 277 280 280 273 264 258 255 254 254 255 256 255 254 253 252 252
263 264 264 263 262 262 262 262 261 262 263 265 267 269 271 272 273 275 277 279 280 280 278 276 275 275 275 277 280 278 269 260 256 255 254 254 254 255 255 255 255 255
263 265 266 267 267 267 267 267 266 266 267 267 267 268 269 269 270 271 273 275 276 276 275 273 272 272 273 274 275 274 271 263 255 252 253 253 253 254 254 256 258 259
261 263 265 266 267 268 268 268 268 268 268 268 268 268 269 269 270 271 271 272 272 272 272 270 269 269 270 270 270 269 269 265 256 248 248 249 249 250 252 256 259 259
261 262 264 265 266 267 267 267 267 267 267 267 268 268 268 269 269 270 270 270 270 268 268 267 266 265 264 264 265 264 264 265 260 250 246 248 249 251 254 256 257 257
264 265 266 267 267 267 267 267 266 266 266 267 267 267 267 266 266 266 267 268 268 267 266 266 264 262 260 260 262 262 260 260 260 254 251 253 256 258 259 258 258 259
269 270 270 270 270 270 269 268 267 267 268 268 269 268 267 266 265 265 265 265 266 265 266 266 264 261 259 259 260 260 258 257 258 257 254 255 259 263 262 258 257 260
272 272 272 272 272 272 271 269 269 270 270 271 271 270 268 266 264 264 264 264 264 264 264 264 263 261 260 259 258 258 258 257 257 255 253 254 259 261 259 257 258 260
271 271 272 272 272 272 271 271 271 271 271 272 271 269 267 266 265 265 264 263 263 263 263 262 262 260 259 258 258 258 258 257 256 254 251 252 254 255 254 257 261 264
270 270 270 270 271 271 271 270 270 270 270 271 270 268 267 266 266 265 264 263 262 262 261 260 260 259 258 257 256 256 257 256 255 253 250 249 250 253 256 260 264 265
272 271 271 270 270 270 269 269 269 269 269 268 267 266 266 266 265 264 263 262 261 260 260 259 258 258 257 255 254 254 255 255 254 252 251 251 253 256 260 262 263 264
274 273 273 272 272 271 270 269 268 267 266 265 264 264 265 266 265 264 263 261 259 258 257 257 257 256 255 254 253 253 254 256 255 254 253 254 256 259 261 263 264 263
Height
5765 5765 5766 5766 5766 5766 5766 5765 5765 5764 5763 5763 5763 5763 5763 5764 5764 5764 5764 5763 5763 5763 5763 5763 5764 5764 5764 5765 5765 5765 5766 5766 5767 5767 5768 5768 5769 5769 5769 5770 5770 5770
5763 5764 5764 5764 5764 5764 5764 5763 5762 5761 5761 5761 5761 5762 5762 5762 5762 5762 5762 5762 5762 5762 5762 5762 5762 5763 5763 5763 5764 5764 5764 5765 5765 5766 5766 5766 5767 5767 5767 5768 5768 5768
5762 5762 5762 5762 5762 5762 5762 5761 5760 5760 5759 5759 5760 5760 5760 5760 5760 5760 5761 5760 5760 5760 5760 5760 5761 5761 5762 5762 5762 5763 5763 5763 5764 5764 5764 5765 5765 5765 5765 5766 5766 5766
5760 5760 5760 5760 5760 5760 5759 5759 5758 5758 5758 5758 5758 5758 5758 5758 5758 5758 5759 5759 5759 5759 5759 5759 5759 5760 5760 5760 5761 5761 5762 5762 5762 5763 5763 5763 5763 5764 5764 5764 5764 5764
5758 5758 5758 5757 5757 5757 5757 5757 5756 5756 5756 5756 5756 5756 5756 5756 5756 5756 5756 5757 5757 5757 5757 5757 5758 5758 5758 5759 5759 5760 5760 5760 5761 5761 5761 5761 5762 5762 5762 5762 5763 5763
5755 5755 5755 5755 5755 5755 5755 5755 5754 5754 5754 5754 5754 5754 5754 5754 5754 5754 5754 5754 5755 5755 5756 5756 5756 5757 5757 5757 5758 5758 5758 5759 5759 5759 5759 5760 5760 5760 5761 5761 5761 5762
5752 5752 5752 5752 5752 5752 5753 5753 5752 5752 5752 5752 5752 5752 5752 5752 5752 5752 5752 5752 5752 5753 5754 5754 5755 5755 5756 5756 5756 5757 5757 5757 5757 5758 5758 5758 5758 5758 5759 5759 5759 5760
5750 5749 5749 5750 5750 5750 5750 5750 5750 5750 5750 5750 5750 5750 5750 5750 5750 5750 5750 5750 5751 5751 5752 5752 5753 5753 5754 5754 5755 5755 5755 5755 5756 5756 5756 5757 5757 5757 5757 5757 5757 5757
5747 5747 5747 5747 5747 5748 5748 5748 5748 5748 5748 5748 5748 5748 5748 5748 5748 5748 5749 5749 5750 5750 5750 5751 5751 5751 5752 5752 5753 5753 5753 5753 5754 5754 5754 5754 5754 5754 5755 5755 5755 5755
5744 5744 5745 5745 5745 5746 5746 5746 5746 5746 5746 5746 5746 5747 5747 5747 5747 5747 5748 5748 5749 5749 5749 5749 5749 5749 5750 5750 5750 5750 5750 5750 5751 5751 5752 5752 5752 5752 5752 5753 5753 5753
5741 5742 5742 5743 5743 5743 5744 5744 5744 5744 5744 5744 5744 5745 5745 5745 5746 5746 5746 5747 5747 5748 5748 5747 5747 5747 5747 5747 5747 5747 5747 5748 5748 5749 5749 5749 5749 5750 5750 5750 5750 5751
5739 5739 5740 5740 5741 5741 5741 5741 5741 5741 5741 5742 5742 5742 5743 5743 5744 5744 5745 5745 5745 5745 5745 5745 5745 5744 5744 5744 5745 5745 5745 5745 5746 5746 5746 5747 5747 5747 5747 5748 5748 5748
5736 5737 5737 5738 5738 5738 5738 5738 5738 5739 5739 5739 5739 5740 5740 5741 5741 5742 5742 5742 5742 5742 5742 5742 5742 5742 5742 5742 5742 5742 5742 5742 5742 5743 5743 5744 5744 5744 5745 5745 5745 5745
5733 5734 5734 5734 5734 5735 5735 5735 5735 5736 5736 5736 5737 5737 5737 5738 5738 5738 5739 5739 5739 5739 5739 5739 5739 5739 5739 5739 5739 5739 5739 5739 5739 5740 5740 5740 5741 5741 5741 5741 5741 5741
5729 5730 5731 5731 5731 5731 5732 5732 5732 5733 5733 5734 5734 5734 5734 5734 5734 5735 5735 5735 5736 5736 5735 5735 5736 5736 5736 5735 5735 5735 5736 5736 5736 5736 5737 5737 5737 5738 5738 5738 5738 5738
5725 5726 5727 5727 5727 5728 5728 5728 5729 5729 5730 5730 5730 5731 5731 5731 5731 5731 5731 5731 5732 5732 5731 5731 5731 5731 5732 5732 5732 5732 5732 5732 5732 5732 5733 5733 5734 5735 5735 5735 5735 5734
5721 5722 5722 5723 5723 5724 5724 5724 5725 5725 5726 5726 5726 5726 5726 5727 5727 5727 5727 5727 5727 5727 5727 5727 5727 5727 5727 5728 5728 5728 5728 5728 5728 5728 5729 5730 5730 5731 5732 5732 5732 5731
5717 5717 5718 5718 5719 5719 5720 5720 5721 5721 5721 5721 5721 5722 5722 5722 5722 5722 5722 5723 5723 5723 5723 5723 5723 5723 5723 5723 5724 5724 5724 5724 5724 5725 5725 5725 5726 5727 5728 5728 5727 5726
5712 5713 5713 5713 5714 5714 5715 5715 5716 5716 5716 5716 5716 5716 5717 5717 5717 5717 5717 5717 5718 5718 5718 5718 5719 5719 5719 5718 5719 5720 5720 5720 5720 5720 5720 5721 5722 5723 5724 5723 5722 5721
5706 5707 5708 5708 5709 5709 5709 5710 5710 5711 5711 5711 5711 5711 5711 5712 5712 5712 5712 5712 5712 5712 5712 5713 5713 5714 5714 5714 5714 5715 5716 5716 5716 5716 5716 5717 5718 5719 5720 5718 5717 5717
5700 5700 5701 5702 5702 5703 5703 5703 5704 5704 5705 5705 5706 5706 5706 5706 5706 5706 5706 5706 5706 5706 5706 5707 5708 5708 5709 5709 5709 5709 5710 5711 5711 5712 5713 5713 5713 5713 5713 5713 5712 5712
5693 5694 5694 5695 5695 5696 5696 5696 5697 5698 5698 5699 5700 5700 5700 5700 5700 5700 5700 5700 5700 5700 5700 5701 5701 5702 5703 5703 5703 5704 5705 5706 5707 5707 5708 5708 5707 5707 5707 5707 5707 5706
5687 5687 5687 5687 5688 5689 5689 5690 5690 5691 5691 5692 5692 5693 5694 5694 5694 5694 5694 5694 5694 5694 5694 5694 5695 5696 5697 5697 5698 5699 5700 5701 5701 5702 5702 5702 5701 5701 5701 5701 5701 5701
5679 5679 5680 5680 5681 5681 5682 5682 5683 5684 5684 5685 5685 5685 5686 5686 5687 5687 5687 5687 5687 5687 5688 5688 5689 5690 5691 5692 5692 5693 5694 5694 5695 5695 5696 5695 5695 5695 5695 5695 5695 5695
5670 5671 5671 5672 5673 5673 5674 5675 5675 5676 5677 5677 5677 5678 5678 5679 5679 5680 5680 5681 5681 5681 5681 5682 5683 5684 5684 5685 5686 5687 5687 5688 5689 5689 5689 5689 5689 5689 5689 5689 5689 5689
5661 5662 5662 5663 5664 5664 5665 5666 5667 5668 5669 5669 5670 5670 5670 5671 5671 5672 5673 5674 5674 5674 5674 5675 5676 5677 5678 5679 5680 5681 5681 5681 5682 5683 5683 5684 5684 5684 5683 5684 5684 5684